Location: Bonningues
(50.7927°N, 2.0150°E)
Time: 15:01:32
(UTC+00:00)

Cosmos 1842 - Pass Details

Date: 08 August 2020
Orbit: 520 x 538 km, 82.5° (Epoch: 18 September)

Event Time Altitude Azimuth Distance (km) Brightness Sun altitude
Rises 23:12:00 0° 356° (N) 2,703 8.3 -22.7°
Reaches altitude 10° 23:14:20 10° 7° (N) 1,804 6.9 -22.8°
Maximum altitude 23:17:57 33° 72° (ENE) 924 4.5 -22.9°
Enters shadow 23:18:05 33° 77° (ENE) 925 4.4 -22.9°
